Lapse_Rate
1.2 1.2 1.0 1.0 0.9 0.8 0.7 0.4 0.2 0.1 0.3 0.6 0.6 0.5 0.2 -0.1 -0.3 -0.0 -0.0 0.1 0.2 0.3 0.4 0.4 0.5 0.6 3.3 6.8 7.8 6.2 5.6 5.2 5.8 6.4 7.0 7.3 7.7 7.4 6.5 6.9 7.1 6.5 6.7 7.2 7.5 7.4 7.4
0.8 0.8 0.9 0.9 0.7 0.6 0.6 0.4 0.2 0.1 0.3 0.5 0.5 0.2 -0.1 -0.4 -0.5 -0.5 -0.6 -0.3 -0.1 -0.0 -0.4 -0.1 0.3 0.6 5.2 6.9 6.4 5.8 5.0 5.8 6.6 6.6 6.7 6.9 7.8 7.9 7.3 6.9 6.6 7.1 7.1 7.2 7.3 7.2 7.3
1.0 0.8 0.5 0.5 0.5 0.6 0.6 0.4 0.2 0.2 0.4 0.4 0.3 0.1 -0.3 -0.5 -0.5 -0.6 -1.0 -0.8 -0.9 -1.0 -0.9 -0.5 0.1 2.6 5.0 7.3 6.1 5.7 5.4 5.8 5.9 6.5 6.8 6.6 7.1 7.8 7.7 6.7 7.6 7.3 6.5 6.5 6.7 7.0 6.5
1.0 0.8 0.6 0.6 0.5 0.4 0.4 0.3 0.1 0.2 0.2 0.1 -0.0 -0.2 -0.5 -0.7 -0.8 -1.1 -1.3 -1.4 -1.8 -1.0 -0.7 -0.4 0.4 3.6 6.8 5.1 5.3 5.8 6.1 5.9 6.1 5.8 6.1 6.2 6.6 7.4 7.5 7.8 7.0 6.5 6.5 6.5 6.5 6.7 6.9
0.8 0.7 0.6 0.5 0.4 0.4 0.4 0.2 -0.0 0.1 0.1 0.1 -0.1 -0.2 -0.6 -1.0 -1.1 -1.4 -1.3 -1.5 -1.1 -0.4 0.3 0.7 3.6 5.1 7.2 5.3 6.5 5.7 5.5 6.2 6.0 5.9 6.2 6.6 6.8 7.1 7.4 6.5 6.5 6.5 6.5 6.5 6.5 6.8 6.5
1.1 1.0 0.7 0.6 0.4 0.4 0.2 0.1 0.0 0.1 -0.1 -0.4 -0.4 -0.6 -0.7 -1.0 -1.1 -0.7 -0.9 -0.9 -0.2 1.1 1.9 2.7 4.2 6.0 6.8 6.6 5.3 4.9 5.6 5.5 6.5 6.2 6.9 7.1 7.3 6.5 6.5 6.5 6.5 6.5 6.5 6.5 6.5 6.5 6.5
1.5 1.3 0.9 0.8 0.7 0.5 0.3 0.2 0.0 -0.1 -0.1 -0.2 -0.4 -0.7 -1.0 -1.3 -1.1 0.3 0.9 2.5 5.7 6.1 5.0 5.1 5.8 5.7 5.6 5.5 4.0 5.8 5.1 6.1 6.5 7.3 6.5 7.0 6.5 6.5 6.5 6.5 6.5 6.5 6.5 6.5 6.5 6.5 6.5
1.8 1.5 1.2 0.9 0.7 0.5 0.4 0.3 0.2 0.2 0.1 -0.3 -0.6 -0.7 -0.8 -0.8 -0.8 1.2 2.4 3.5 3.2 3.0 7.0 4.2 4.5 4.8 4.5 4.4 6.1 6.4 6.0 7.3 7.1 6.5 6.7 6.5 6.5 6.5 6.5 6.5 6.5 6.5 6.5 6.5 6.5 6.5 6.5
1.9 1.8 1.6 1.3 1.0 0.7 0.5 0.5 0.4 0.4 0.1 -0.0 -0.3 -0.6 -0.6 -0.7 0.1 1.9 2.0 1.9 1.7 3.1 7.1 6.3 5.8 5.9 6.2 5.9 6.5 7.0 6.4 6.4 6.7 6.5 6.5 6.5 6.5 6.7 6.5 6.5 6.5 6.5 6.5 6.5 6.5 6.5 6.5
2.9 2.4 2.1 1.7 1.3 1.0 0.5 0.2 0.3 0.2 0.1 -0.2 0.0 -0.2 -0.6 -0.3 3.5 1.7 2.3 1.1 1.9 3.7 6.5 6.5 6.8 6.5 6.0 5.7 6.9 6.0 5.7 6.6 6.8 6.5 6.5 6.5 6.7 6.5 6.5 6.5 6.5 6.5 6.5 6.5 6.5 6.5 6.5
3.1 3.1 2.6 2.3 1.9 1.4 0.9 0.4 0.4 0.3 0.0 0.1 0.1 -0.2 -0.3 0.7 2.7 3.7 2.1 0.8 1.8 4.2 6.5 6.5 6.7 6.0 5.6 6.9 6.5 6.5 5.4 7.1 6.5 6.5 6.5 6.5 6.5 6.5 6.5 6.5 6.5 6.5 6.5 6.5 6.5 6.5 6.5
3.5 2.9 2.7 2.5 2.0 1.6 1.3 1.2 0.8 0.8 0.6 0.3 0.2 0.0 0.5 1.9 2.1 1.0 -0.2 0.7 3.4 6.5 6.5 6.5 6.8 6.6 6.6 6.9 6.9 6.5 6.6 6.6 6.9 6.5 6.5 6.5 7.1 6.6 6.5 6.5 6.5 6.5 6.5 6.5 6.5 6.5 6.5
3.6 3.1 3.2 2.7 2.6 2.2 1.8 1.5 1.5 1.6 1.8 1.0 0.6 0.1 0.9 0.8 3.5 -0.1 -0.0 3.9 6.5 6.5 6.5 6.5 6.5 6.5 6.5 6.5 6.5 6.6 6.5 6.5 6.5 6.5 6.5 6.5 6.5 6.6 6.8 6.5 6.5 6.5 6.5 6.5 6.5 6.5 6.5
3.3 3.5 3.3 3.1 3.0 2.7 2.4 2.1 2.0 1.9 2.0 1.5 1.0 0.4 -0.0 0.4 -0.4 -0.5 2.6 6.6 6.5 6.5 6.5 6.5 6.5 6.5 6.5 6.5 6.5 6.5 6.5 6.5 6.5 6.5 6.5 6.5 6.5 6.5 6.5 6.5 6.5 6.5 6.5 6.5 6.5 6.5 6.5
3.6 3.3 3.3 3.0 3.3 3.0 2.6 2.5 2.1 2.0 2.1 1.9 1.2 1.0 2.0 0.8 -0.6 1.0 6.6 6.5 6.5 6.5 6.5 6.5 6.5 6.5 6.5 6.5 6.5 6.5 6.5 6.5 6.5 6.5 6.5 6.5 6.5 6.5 6.5 6.6 6.5 6.5 6.5 6.5 6.5 6.5 6.5
3.3 3.3 3.4 3.0 2.6 2.8 2.7 2.4 2.1 2.0 2.4 1.6 3.2 3.4 3.2 -0.4 -0.4 3.9 6.6 6.5 6.5 6.7 6.7 6.5 6.5 6.5 6.5 6.5 6.5 6.5 6.5 6.5 6.5 6.6 6.9 6.5 6.5 6.5 6.5 6.7 6.6 6.5 6.5 6.5 6.5 6.5 6.5
3.7 3.3 3.4 3.5 2.9 2.6 2.6 2.3 2.3 2.3 2.7 2.1 3.8 6.1 2.9 -0.3 2.3 6.9 6.5 6.5 6.5 6.6 6.6 6.5 6.5 6.5 6.5 6.5 6.5 6.5 6.5 6.5 6.6 6.5 6.8 6.5 6.5 6.5 6.5 6.5 6.5 6.5 6.5 6.5 6.5 6.5 6.5
3.8 3.8 3.4 3.4 3.2 2.7 2.4 2.4 2.1 2.2 2.6 3.3 4.4 6.4 2.3 1.0 6.8 7.0 6.5 6.5 6.4 6.7 6.4 6.7 6.7 6.5 6.5 6.5 6.5 6.5 6.5 6.5 7.1 6.9 6.5 6.5 6.5 6.5 6.5 6.5 6.5 6.5 6.5 6.5 6.5 6.5 6.5
4.3 4.1 3.8 3.2 3.1 2.9 2.6 2.3 2.2 2.4 2.3 3.9 5.5 4.9 2.3 4.0 6.5 6.5 6.7 6.5 6.6 6.6 6.6 6.5 6.5 6.6 6.6 6.5 6.5 6.5 6.5 6.8 6.9 6.6 6.5 6.5 6.5 6.5 6.5 6.5 6.5 6.5 6.5 6.5 6.5 6.5 6.5
4.3 4.4 3.9 3.8 3.7 3.3 2.6 2.3 2.3 2.2 2.7 3.8 5.1 6.5 5.0 4.5 4.3 6.6 6.5 6.5 6.5 5.9 6.7 6.7 6.6 6.8 6.5 6.5 6.5 6.5 6.5 6.6 6.3 6.9 5.8 6.7 6.5 6.5 6.5 6.5 6.5 6.5 6.5 6.5 6.5 6.5 6.5
4.0 4.3 4.3 4.3 3.6 3.4 2.9 2.5 2.0 2.1 2.7 4.4 4.8 5.6 5.2 6.5 6.7 6.7 6.7 6.5 6.5 6.5 6.7 6.9 6.5 6.5 6.5 6.5 6.5 6.5 6.5 6.5 6.8 6.7 6.8 6.5 6.5 6.5 6.5 6.5 6.5 6.5 6.5 6.5 6.5 6.5 6.5
4.2 4.5 4.6 4.5 3.9 3.8 3.4 2.6 2.4 2.2 2.3 4.1 5.1 4.5 3.8 5.7 5.7 6.6 6.5 6.5 6.5 6.5 6.5 6.5 6.5 6.5 6.5 6.5 6.5 6.5 6.5 6.5 6.5 6.7 6.5 6.5 6.5 6.5 6.5 6.5 6.5 6.5 6.5 6.5 6.5 6.5 6.5
4.3 5.2 4.8 4.4 4.4 4.0 4.0 3.6 2.8 2.2 3.5 5.1 2.4 2.3 4.8 6.2 6.8 6.5 6.5 6.5 6.5 6.7 6.4 6.7 6.5 6.5 6.5 6.6 6.9 7.0 7.2 7.2 6.9 6.5 6.5 6.5 6.5 6.5 6.5 6.5 6.5 6.5 6.5 6.5 6.5 6.5 6.5
3.5 4.8 4.7 4.5 4.2 4.6 4.0 3.5 2.7 2.2 2.8 2.8 2.6 4.4 5.5 6.5 6.5 6.5 6.6 6.7 6.5 6.7 6.5 6.6 6.2 6.6 6.3 5.3 5.5 5.5 6.8 7.1 7.0 6.8 7.0 6.5 6.5 6.5 6.5 6.5 6.5 6.5 6.5 6.5 6.5 6.5 6.5
3.1 4.6 4.8 4.7 4.4 4.1 4.1 2.9 2.6 2.7 2.8 2.8 2.1 3.9 5.2 6.5 6.2 6.7 6.6 6.7 6.9 6.9 6.8 6.4 6.1 5.6 4.8 5.7 6.5 6.5 6.5 6.5 6.5 6.5 6.5 6.7 6.5 6.5 6.5 6.5 6.5 6.5 6.5 6.5 6.5 6.5 6.5
3.2 3.8 4.2 4.3 4.5 4.0 3.6 3.1 3.0 2.7 2.6 2.1 2.1 3.3 4.3 6.4 6.4 6.6 6.8 6.3 6.5 6.5 6.6 6.4 5.5 4.8 5.3 6.7 6.5 6.5 6.5 6.5 6.5 6.5 6.7 6.5 6.5 6.5 6.5 6.5 6.5 6.5 6.5 7.2 6.9 6.5 6.9
2.7 3.5 3.8 4.2 4.4 4.2 3.3 2.8 3.1 2.8 2.5 2.7 3.3 4.4 5.4 5.7 5.7 5.8 6.6 6.6 6.1 6.9 6.5 6.9 6.7 6.4 5.7 6.5 6.5 6.5 6.5 6.5 6.5 6.5 6.5 6.5 6.5 6.5 6.5 6.5 6.5 6.5 6.9 7.3 6.5 6.5 7.2
2.5 3.4 3.6 4.0 3.9 3.5 3.1 3.2 2.7 3.2 2.9 2.9 2.6 2.8 5.4 5.0 5.6 4.9 5.1 6.0 6.2 6.6 6.5 6.9 6.6 6.8 6.6 6.5 6.5 6.5 6.5 6.5 6.5 6.5 6.5 6.5 6.5 6.5 6.5 6.5 6.5 7.2 6.8 6.5 6.8 7.5 7.5
2.6 3.0 3.4 3.6 3.4 3.5 3.3 3.0 2.6 2.8 2.4 3.1 3.5 2.3 4.5 5.9 5.1 3.4 3.5 3.6 3.7 4.0 6.6 6.5 6.9 6.9 7.0 6.5 6.5 6.5 6.5 6.5 6.5 6.5 6.5 6.5 6.5 6.5 6.5 6.5 7.0 7.6 7.3 7.8 7.8 7.5 7.6
Wind_Speed
9 10 12 12 13 13 14 15 15 15 15 15 16 16 16 17 19 18 18 17 16 15 14 11 10 8 2 3 2 4 3 2 3 3 2 3 3 3 6 6 8 7 9 10 15 18 14
9 10 11 12 13 14 15 15 15 15 16 16 16 17 17 18 19 19 20 19 18 16 13 9 7 5 2 4 3 2 1 1 1 2 2 2 2 3 5 6 5 7 15 19 11 9 9
7 9 11 12 13 13 13 14 15 15 16 16 16 17 19 19 20 21 20 19 19 16 11 6 4 3 2 3 2 3 3 2 1 1 2 1 1 3 5 8 4 9 10 13 2 9 7
6 7 9 11 11 12 13 14 14 16 17 17 18 19 21 22 23 23 20 19 17 7 1 4 5 3 3 1 1 1 3 2 3 3 1 1 1 1 4 8 4 6 4 9 11 10 3
5 6 8 8 9 11 12 13 15 15 16 17 18 20 21 23 26 25 21 15 3 6 8 7 3 3 2 1 1 3 3 3 2 4 4 4 0 2 3 9 5 5 8 14 9 7 10
5 5 6 8 9 10 11 12 13 15 17 19 21 23 23 23 26 28 21 2 3 4 3 2 1 3 1 3 3 3 2 2 1 3 2 1 1 2 7 9 9 11 8 11 9 10 12
5 6 6 7 8 9 11 11 12 14 16 19 21 24 25 24 24 22 9 0 3 2 6 4 4 3 2 6 1 1 2 1 1 2 4 2 3 7 11 7 8 7 8 10 6 7 7
7 7 6 6 7 9 9 11 13 14 16 18 21 24 28 25 20 14 6 6 3 1 6 1 4 5 4 1 1 2 3 1 2 2 4 2 5 6 9 4 9 2 10 9 2 6 6
9 8 7 6 7 7 9 10 12 14 16 18 21 24 29 28 9 6 8 4 1 4 3 3 2 3 2 2 1 3 5 1 3 2 6 3 3 8 4 5 13 1 9 8 4 7 1
12 10 8 7 7 8 8 9 9 12 15 19 21 22 25 30 0 2 3 3 2 3 2 3 2 2 1 2 1 1 2 2 1 5 2 1 3 5 7 7 8 7 9 6 6 2 5
14 12 11 9 8 8 9 9 10 11 14 16 20 23 20 13 3 2 4 5 1 3 1 4 2 1 3 3 5 3 1 0 1 4 3 4 5 6 11 8 5 6 6 4 4 5 2
18 16 14 13 11 8 8 9 9 11 13 17 18 21 14 3 1 2 7 4 2 1 2 2 2 5 4 4 4 5 2 3 1 2 1 2 1 2 6 8 2 8 2 2 1 2 5
20 19 17 15 13 10 8 8 8 10 12 15 17 15 5 3 3 10 6 2 2 1 1 5 3 5 2 5 3 7 4 6 5 3 7 4 1 2 2 6 1 13 2 2 2 2 3
22 22 20 18 16 14 10 9 7 9 12 17 19 6 3 2 6 7 3 2 1 1 2 1 2 2 2 6 3 6 1 3 5 2 1 4 2 6 7 3 4 5 5 3 1 1 2
21 22 22 20 19 16 14 10 7 8 9 15 11 2 1 4 7 3 3 1 2 1 1 6 5 1 1 1 3 4 4 2 3 4 4 4 3 1 2 2 3 4 4 3 2 1 2
20 21 22 22 21 20 17 13 9 6 6 9 3 3 1 8 4 1 1 3 2 2 1 1 3 2 2 3 3 3 1 1 1 1 3 2 4 1 3 2 2 4 2 2 1 2 2
18 20 21 22 22 22 19 16 11 5 5 5 1 3 1 6 1 1 2 3 3 3 3 2 2 3 3 2 1 2 0 1 1 1 0 2 2 1 2 3 3 1 3 3 1 3 2
18 20 20 20 21 22 20 18 13 9 4 1 0 2 2 4 1 1 2 3 1 3 2 3 2 3 3 2 2 2 3 2 2 2 1 0 1 3 3 2 3 1 1 1 3 2 2
19 20 20 19 21 22 21 20 16 12 6 1 1 2 1 3 2 3 2 3 3 2 3 2 2 4 1 3 3 3 2 1 2 1 0 3 2 4 3 3 4 4 2 1 2 0 6
19 20 19 19 20 22 22 21 21 16 12 2 1 2 1 1 2 2 3 3 3 3 3 3 2 1 1 3 3 2 2 1 1 1 3 3 3 7 7 9 2 8 5 5 6 4 3
18 19 20 19 18 21 21 22 22 18 12 1 1 4 3 2 4 4 1 1 3 3 3 3 2 7 5 3 2 4 2 2 2 2 2 2 5 5 11 13 12 12 14 11 12 14 8
19 19 19 20 20 21 23 24 25 21 15 1 4 3 0 1 1 5 4 4 5 3 5 4 5 4 6 5 4 4 2 2 5 2 2 1 3 2 7 10 6 9 10 9 10 11 14
20 21 19 20 21 21 23 27 29 27 16 2 1 2 3 2 3 4 4 6 6 4 4 2 4 4 6 8 4 5 6 6 5 3 3 3 3 2 5 1 10 11 2 3 4 2 2
20 22 21 20 20 20 23 30 32 33 19 3 3 2 3 4 5 5 5 6 7 7 3 1 3 4 1 1 3 3 3 5 7 10 9 5 5 3 5 6 5 3 4 3 5 5 5
19 21 22 21 20 21 23 30 33 35 30 2 2 3 2 2 2 5 8 4 2 2 3 3 3 1 1 2 1 5 2 2 3 3 3 10 7 4 3 3 2 4 3 3 3 4 2
21 22 23 23 22 21 24 30 33 34 30 4 2 3 2 3 6 4 3 3 4 2 3 3 1 1 1 1 2 4 3 1 3 2 4 6 6 4 2 4 5 4 5 2 2 5 5
23 23 24 25 24 24 28 32 32 32 31 9 2 5 3 3 2 4 4 4 4 3 1 1 4 2 1 2 3 4 4 1 4 3 4 4 3 10 8 5 2 3 2 1 4 3 4
23 23 24 25 26 26 28 31 33 34 34 16 2 9 4 3 2 2 2 3 2 3 5 2 2 1 2 5 4 4 4 4 3 1 3 5 5 4 3 5 7 4 2 4 4 5 3
24 23 24 25 26 27 29 32 33 33 35 22 2 6 3 2 2 3 4 3 1 4 3 4 1 3 3 3 3 2 3 3 3 3 1 3 2 0 2 2 5 7 8 5 3 2 2
Wind_Direction
32 30 27 23 20 19 18 15 13 8 6 4 1 354 348 338 330 326 319 314 310 306 301 298 300 320 285 238 237 146 165 331 138 152 255 298 315 333 325 311 303 251 302 303 291 293 289
28 28 26 24 20 17 15 14 11 9 4 3 359 350 346 337 330 325 319 317 309 305 293 281 288 302 230 260 86 124 342 22 155 205 219 256 313 315 287 296 283 327 301 295 301 297 300
22 24 17 19 21 17 14 14 8 3 2 3 356 348 343 335 329 326 322 314 308 304 282 258 241 232 199 273 65 355 9 12 37 227 282 245 247 269 326 306 323 296 303 320 49 341 320
7 13 18 17 16 12 8 9 8 4 0 357 354 345 342 335 329 326 322 316 311 320 152 176 165 198 249 75 343 94 341 100 37 78 69 57 174 295 290 305 285 306 255 350 350 348 8
344 356 6 9 9 5 7 4 4 1 355 353 350 344 340 337 331 327 329 327 12 79 99 132 171 245 136 78 336 1 355 357 118 91 84 98 305 332 311 343 335 20 327 337 334 20 332
313 331 346 352 356 358 3 3 359 356 353 352 349 341 338 337 336 332 337 64 100 116 96 151 149 230 55 357 319 345 14 14 126 137 146 73 6 296 359 4 356 328 331 333 332 356 353
286 306 322 334 342 348 354 355 355 355 354 352 346 341 337 338 338 344 350 178 322 160 41 351 316 275 326 320 244 85 5 200 167 85 353 36 47 8 339 334 307 306 307 318 2 6 7
271 278 291 311 324 335 345 350 351 352 353 350 345 344 337 340 339 9 27 64 70 330 311 289 274 272 245 263 279 62 331 327 30 21 325 162 34 341 316 293 331 312 337 14 94 5 62
266 270 280 295 307 320 333 343 347 350 349 348 349 347 340 338 327 37 65 64 282 192 265 301 286 301 351 310 24 358 355 93 49 336 19 50 14 320 335 346 352 74 5 334 307 319 199
258 268 275 283 294 304 316 325 338 345 349 349 348 347 347 339 327 350 62 346 295 221 297 35 34 55 287 357 116 330 22 340 103 355 20 18 352 347 343 13 343 345 349 301 302 274 55
254 254 259 262 267 284 299 315 331 340 344 347 347 346 354 25 320 29 340 325 221 240 7 11 2 4 329 8 324 33 24 325 10 10 327 9 347 358 357 350 336 326 335 326 334 67 106
248 249 251 254 255 258 283 302 316 331 341 339 347 345 351 23 14 31 324 308 222 246 266 19 328 358 342 28 12 316 28 61 39 115 98 352 337 318 326 310 258 322 222 240 243 322 49
250 249 250 250 251 254 265 281 304 322 330 338 341 342 29 326 349 328 316 235 331 187 13 357 347 358 351 337 14 12 26 39 23 17 15 334 26 337 346 326 344 6 40 203 171 53 52
249 249 250 248 247 249 251 262 284 309 331 332 334 340 39 45 332 333 293 277 269 60 345 14 320 302 35 0 51 357 39 67 58 22 79 355 334 5 348 29 315 359 2 6 103 144 62
252 249 247 248 245 243 246 245 266 296 329 331 329 0 26 2 351 349 300 307 287 197 309 332 300 289 37 53 336 349 29 46 17 355 16 343 317 300 318 345 332 6 26 332 83 90 237
255 251 250 246 236 234 235 234 246 268 319 337 343 328 342 334 350 3 293 267 267 235 235 206 292 350 304 335 312 23 18 36 113 19 297 120 290 83 320 271 81 39 75 314 357 211 176
261 259 255 246 240 230 222 222 232 229 293 324 26 303 96 318 206 22 245 247 284 259 222 211 267 275 265 281 280 301 141 137 178 138 70 172 228 197 248 23 340 94 49 55 306 303 286
261 263 260 252 241 233 221 216 211 207 232 19 347 278 0 299 31 12 237 206 317 265 220 234 247 251 247 257 252 251 229 232 178 159 283 163 282 280 304 350 255 282 350 26 320 341 305
263 264 259 249 243 236 222 208 198 197 184 194 213 285 5 268 237 218 243 259 236 220 233 214 242 229 168 251 274 238 251 161 131 161 271 180 214 296 173 181 166 224 188 103 107 252 248
259 257 255 251 246 239 223 205 190 185 189 146 149 308 330 340 80 239 208 228 249 205 254 201 239 185 176 244 229 287 252 203 299 352 43 203 230 243 265 301 323 266 213 223 245 246 244
259 256 253 251 245 236 221 201 184 176 182 204 179 226 262 170 225 195 186 252 203 234 217 210 204 226 191 239 242 236 240 295 178 8 110 229 255 223 260 274 269 265 267 253 227 232 237
254 253 252 251 244 233 218 195 175 170 159 98 173 169 281 95 154 169 186 215 220 233 196 221 220 186 192 224 229 280 205 208 265 132 159 198 269 263 271 261 260 265 260 247 240 245 250
254 249 247 246 243 232 214 189 172 169 166 174 108 88 111 135 209 169 212 208 211 187 213 251 217 172 211 238 235 270 246 261 275 235 221 247 246 236 268 240 303 270 223 167 131 136 266
245 249 244 240 239 235 212 188 176 174 184 133 173 133 146 232 210 214 190 197 217 220 257 187 170 179 60 359 282 250 240 255 249 248 238 224 202 226 277 296 237 77 34 219 130 109 114
243 242 242 238 235 232 211 187 182 180 188 126 141 144 144 202 162 250 227 200 190 195 219 244 198 153 146 73 284 300 216 211 125 59 242 221 207 238 255 247 334 200 172 182 217 148 118
251 240 236 230 226 224 208 191 186 185 186 163 146 148 136 145 210 218 174 162 229 213 296 226 130 146 105 120 171 227 245 341 239 193 53 164 230 238 195 242 268 79 130 45 207 221 161
244 241 234 225 221 216 199 192 190 186 180 168 182 190 123 178 227 177 181 181 153 185 226 130 171 171 268 164 204 212 237 191 248 227 176 140 178 225 234 259 267 70 353 155 218 76 138
240 241 237 227 217 208 198 194 191 185 177 171 159 194 149 178 169 167 87 127 150 229 186 127 122 203 139 198 209 187 214 200 244 228 201 192 184 204 206 233 256 13 151 238 66 83 97
239 239 239 232 220 208 200 196 192 182 174 173 147 165 147 114 100 56 88 54 347 331 157 200 228 148 171 195 208 210 212 197 227 237 144 222 315 339 304 24 79 42 78 77 55 109 104